Home   Weather   Santiago de Cuba   Past weeks

Flag for Cuba Past Weather in Santiago de Cuba, Cuba — Yesterday and Last 2 Weeks

Now
73 °F

Passing clouds.


Feels Like: 74 °F
Forecast: 73 / 86 °F
Wind: 5 mph from North

Location: Santiago De Cuba - Oriente

Current Time: Apr 29, 2017 at 3:41:26 am

Latest Report: Apr 29, 2017 at 2:51 am


Visibility: 6 mi

Pressure: 29.98 "Hg

Humidity: 78%

Dew Point: 66 °F

Location of Santiago de CubaLocation

Past Weather in Santiago de Cuba — Graph

°F

Santiago de Cuba Temperature Yesterday

Maximum temperature yesterday: 84 °F (at 1:50 pm)
Minimum temperature yesterday: 73 °F (at 12:50 am)
Average temperature yesterday: 77 °F

High & Low Weather Summary for the Past Weeks

 TemperatureHumidityPressure
High88 °F (Apr 14, 12:51 pm)100% (Apr 19, 4:50 pm)30.04 "Hg (Apr 19, 4:50 pm)
Low39 °F (Apr 19, 4:50 pm)33% (Apr 14, 12:51 pm)29.80 "Hg (Apr 23, 4:50 am)
Average77 °F76%29.95 "Hg
* Reported Apr 14 1:50 am — Apr 29 1:50 am, Santiago de Cuba, Weather by CustomWeather, © 2017

Note: Actual official high and low records may vary slightly from our data, if they occured in-between our weather recording intervals... More about our weather records

Advertising

Santiago de Cuba Weather History for the Previous 24 Hours

Scroll right to see more
 ConditionsComfort  
Time TempWeatherWind HumidityBarometerVisibility
1:50 am
Sat, Apr 29
75 °FPassing clouds.5 mph78%30.01 "Hg6 mi
12:50 am75 °FPassing clouds.5 mph78%30.01 "Hg6 mi
11:50 pm
Fri, Apr 28
75 °FPassing clouds.3 mph78%30.04 "Hg6 mi
10:50 pm77 °FPassing clouds.6 mph79%30.04 "Hg6 mi
9:50 pm77 °FPassing clouds.7 mph74%30.04 "Hg6 mi
8:50 pm75 °FPassing clouds.6 mph78%30.01 "Hg6 mi
7:50 pm75 °FPassing clouds.5 mph83%30.01 "Hg6 mi
6:59 pm75 °FMild.5 mph89%29.98 "HgN/A
5:52 pm75 °FScattered showers. Broken clouds.7 mph89%29.98 "Hg6 mi
4:51 pm79 °FScattered showers. Scattered clouds.7 mph65%N/A5 mi
3:51 pm82 °FScattered showers. Scattered clouds.5 mph66%29.98 "Hg6 mi
2:50 pm84 °FScattered showers. Scattered clouds.8 mph62%29.98 "Hg6 mi
1:50 pm84 °FScattered clouds.9 mph66%30.01 "Hg6 mi
12:51 pm82 °FScattered clouds.12 mph66%30.01 "Hg6 mi
11:52 am82 °FScattered clouds.7 mph66%30.04 "Hg6 mi
10:51 am82 °FPassing clouds.7 mph66%30.04 "Hg6 mi
9:51 am82 °FPassing clouds.2 mph62%30.01 "Hg6 mi
8:50 am81 °FPassing clouds.3 mph74%30.01 "Hg6 mi
7:51 am75 °FPassing clouds.2 mph94%30.01 "Hg6 mi
6:51 am73 °FPassing clouds.3 mph94%29.98 "Hg6 mi
5:50 am73 °FPassing clouds.6 mph94%29.95 "Hg6 mi
4:50 am73 °FPassing clouds.2 mph94%29.95 "Hg6 mi
3:50 am73 °FPassing clouds.5 mph94%29.95 "Hg6 mi
Weather by CustomWeather, © 2017

See weather overviewHow to use our weather pages